Weather reports worldwide

Advertisment
Gottfrieding, Germany (10872): temperature & dewpoint: 20.09.2020 13:00:00 - 26.09.2020 13:00:00 (CEST)Gottfrieding, Germany (10872): temperature 5cm & temperature -5cm: 20.09.2020 13:00:00 - 26.09.2020 13:00:00 (CEST)Gottfrieding, Germany (10872): temperature -20cm & temperature -100cm: 20.09.2020 13:00:00 - 26.09.2020 13:00:00 (CEST)Gottfrieding, Germany (10872): wind speed & gusts: 20.09.2020 13:00:00 - 26.09.2020 13:00:00 (CEST)Gottfrieding, Germany (10872): wind direction: 20.09.2020 13:00:00 - 26.09.2020 13:00:00 (CEST)Gottfrieding, Germany (10872): reduced air pressure: 20.09.2020 13:00:00 - 26.09.2020 13:00:00 (CEST)Gottfrieding, Germany (10872): visibility: 20.09.2020 13:00:00 - 26.09.2020 13:00:00 (CEST)Gottfrieding, Germany (10872): sunshine duration: 20.09.2020 13:00:00 - 26.09.2020 13:00:00 (CEST)Gottfrieding, Germany (10872): precipitation: 20.09.2020 13:00:00 - 26.09.2020 13:00:00 (CEST)
Date & Time tt [°C] td [°C] tt 5cm [°C] tt -5cm [°C] tt -20cm [°C] tt -100cm [°C] ff [km/h] ff [kn] fx [km/h] fx [kn] dd ppp [hPa] vv [km] sd [min] rr [mm]
26.09.2020 13:00:00 8,4 6,2 8,4 10,6 13,4 17,2 23 13 37 20 W 1000,0 25 0 1,3
26.09.2020 12:00:00 8,3 6,0 8,2 10,3 13,5 17,2 24 13 38 20 W 1000,1 46 0 0,0
26.09.2020 11:00:00 7,9 6,7 7,8 10,3 13,5 17,2 24 13 43 23 W 999,8 13 0 0,1
26.09.2020 10:00:00 8,0 6,3 7,8 10,3 13,6 17,2 31 17 44 24 W 999,3 20 0 0,3
26.09.2020 09:00:00 7,9 6,8 7,9 10,0 13,6 17,2 24 13 35 19 W 998,6 15 0 0,4
26.09.2020 08:00:00 7,8 6,5 7,7 9,8 13,7 17,2 19 10 32 17 W 999,3 43 0 0,0
26.09.2020 07:00:00 8,0 6,7 7,7 9,8 13,8 17,2 21 11 29 16 W 999,3 44 0 0,2
26.09.2020 06:00:00 7,8 7,2 7,6 9,8 13,9 17,2 15 8 26 14 W 999,6 19 0 1,0
26.09.2020 05:00:00 7,6 7,2 7,4 9,9 14,1 17,3 16 9 23 12 WSW 999,3 19 0 0,9
26.09.2020 04:00:00 7,3 6,9 7,2 9,9 14,2 17,3 13 7 18 10 WSW 999,8 13 0 0,7
26.09.2020 03:00:00 7,0 6,5 7,0 9,9 14,4 17,3 11 6 23 13 WSW 1000,5 12 0 1,7
26.09.2020 02:00:00 6,9 6,3 6,9 10,1 14,6 17,3 12 7 18 10 WSW 1000,9 15 0 1,9
26.09.2020 01:00:00 6,8 6,1 6,7 10,3 14,8 17,3 10 5 17 9 SW 1001,3 7 0 1,1
26.09.2020 00:00:00 6,8 5,8 6,7 10,4 14,9 17,3 9 5 14 8 SW 1001,3 25 0 0,4
25.09.2020 23:00:00 6,8 5,5 6,6 10,5 15,1 17,3 8 5 26 14 WSW 1001,6 30 0 0,2
25.09.2020 22:00:00 7,1 5,6 7,0 10,7 15,3 17,3 16 9 27 14 SW 1002,2 65 0 0,0
25.09.2020 21:00:00 7,3 6,0 7,1 11,0 15,4 17,3 13 7 24 13 WSW 1002,2 72 0 0,0
25.09.2020 20:00:00 7,9 6,8 7,6 11,5 15,6 17,3 11 6 25 13 WSW 1002,3 42 0 0,3
25.09.2020 19:00:00 8,0 6,8 7,8 11,9 15,7 17,3 9 5 19 10 WSW 1002,3 22 0 0,4
25.09.2020 18:00:00 8,1 6,9 8,0 12,2 15,9 17,3 15 8 29 16 W 1002,5 25 0 0,5
25.09.2020 17:00:00 8,5 6,4 8,3 12,7 16,0 17,3 18 10 30 16 W 1002,3 24 0 2,1
25.09.2020 16:00:00 9,3 5,5 8,1 13,3 16,1 17,3 14 8 32 17 W 1002,2 11 0 0,4
25.09.2020 15:00:00 10,6 7,7 10,9 14,2 16,1 17,3 16 8 29 16 W 1001,4 69 0 0,1
25.09.2020 14:00:00 10,5 7,7 10,6 14,2 16,2 17,3 22 12 33 18 W 1001,6 26 0 0,9
25.09.2020 13:00:00 10,2 8,6 10,1 13,7 16,3 17,3 22 12 32 17 W 1002,2 19 0 0,6
25.09.2020 12:00:00 - - - - - - - - - - - - - - -
25.09.2020 11:00:00 10,8 9,2 10,6 14,9 16,5 17,3 32 18 51 28 WNW 1001,6 8 0 2,5
25.09.2020 10:00:00 13,4 12,5 13,1 14,8 16,6 17,4 8 4 13 7 SW 1000,1 19 0 0,5
25.09.2020 09:00:00 13,1 12,3 12,9 14,6 16,7 17,4 4 2 14 8 S 1000,2 42 0 0,0
25.09.2020 08:00:00 13,0 12,1 12,5 14,4 16,8 17,4 7 4 12 7 WSW 1000,3 52 0 0,0
25.09.2020 07:00:00 13,0 12,2 12,4 14,5 16,9 17,4 9 5 12 7 SSW 1000,7 53 0 1,1
25.09.2020 06:00:00 12,9 12,3 12,6 14,7 17,0 17,4 6 3 18 10 S 1001,1 18 0 2,0
25.09.2020 05:00:00 13,3 12,9 13,0 15,0 17,1 17,4 13 7 24 13 WSW 1001,7 17 0 1,9
25.09.2020 04:00:00 13,8 13,3 13,4 15,2 17,2 17,4 13 7 22 12 SW 1001,9 26 0 1,6
25.09.2020 03:00:00 14,0 13,0 13,4 15,5 17,3 17,4 13 7 32 18 W 1001,9 19 0 1,1
25.09.2020 02:00:00 15,6 14,2 15,0 15,8 17,4 17,4 20 11 29 15 WSW 1001,9 36 0 0,0
25.09.2020 01:00:00 15,9 14,0 15,2 15,7 17,5 17,4 16 9 33 18 WSW 1002,0 31 0 0,0
25.09.2020 00:00:00 14,3 13,8 13,9 15,7 17,7 17,4 8 4 12 6 NE 1001,3 19 0 0,0
24.09.2020 23:00:00 14,1 13,7 13,4 15,7 17,8 17,4 5 3 13 7 E 1002,5 17 0 0,0
24.09.2020 22:00:00 14,4 13,9 13,6 16,0 18,0 17,4 9 5 13 7 ENE 1003,5 17 0 0,0
24.09.2020 21:00:00 14,1 13,4 12,5 16,6 18,1 17,4 6 3 13 7 ENE 1004,8 19 0 0,0
24.09.2020 20:00:00 15,8 14,4 13,7 17,6 18,1 17,4 7 4 13 7 NE 1005,5 42 0 0,0
24.09.2020 19:00:00 17,9 15,1 16,5 19,0 18,0 17,4 9 5 14 8 ENE 1005,8 51 31 0,0
24.09.2020 18:00:00 18,9 15,3 18,3 20,1 17,9 17,4 10 5 18 10 E 1006,4 51 0 0,0
24.09.2020 17:00:00 19,6 15,2 19,5 21,2 17,7 17,4 10 6 19 10 E 1006,8 57 24 0,0
24.09.2020 16:00:00 19,9 14,5 20,7 22,3 17,4 17,5 9 5 16 8 E 1007,8 64 48 0,0
24.09.2020 15:00:00 19,9 14,7 21,6 21,8 17,0 17,5 8 5 15 8 E 1008,4 58 10 0,0
24.09.2020 14:00:00 19,6 13,5 22,2 22,4 16,8 17,5 4 2 14 8 SE 1009,0 41 58 0,0
24.09.2020 13:00:00 18,7 14,2 21,2 19,9 16,6 17,5 9 5 18 10 W 1009,6 69 37 0,0
24.09.2020 12:00:00 17,4 14,7 19,2 17,7 16,5 17,5 6 4 14 8 WSW 1009,8 39 4 0,0
24.09.2020 11:00:00 15,2 13,9 16,3 16,6 16,4 17,5 2 1 8 5 NE 1010,3 40 0 0,4
24.09.2020 10:00:00 13,8 13,2 14,1 15,7 16,5 17,5 2 1 6 3 N 1010,5 30 0 0,5
24.09.2020 09:00:00 13,1 12,8 14,5 14,6 16,6 17,5 4 2 6 4 NE 1009,6 19 29 0,0
24.09.2020 08:00:00 11,3 11,3 11,7 13,6 16,7 17,5 3 1 8 4 NE 1009,5 3,6 0 0,0
24.09.2020 07:00:00 10,0 10,0 10,2 13,5 16,8 17,5 1 1 4 2 W 1009,4 0,1 0 0,1
24.09.2020 06:00:00 10,0 10,0 9,9 13,5 17,0 17,5 0 0 7 4 N 1009,3 0,2 0 0,0
24.09.2020 05:00:00 10,4 10,4 9,6 14,1 17,1 17,5 3 2 4 2 SE 1009,4 0,4 0 0,0
24.09.2020 04:00:00 11,1 11,1 11,2 14,3 17,2 17,5 2 1 5 3 W 1009,2 0,2 0 0,1
24.09.2020 03:00:00 11,1 11,1 10,4 14,5 17,4 17,5 3 1 4 2 NE 1009,1 0,2 0 0,0
24.09.2020 02:00:00 12,1 12,1 11,7 15,0 17,5 17,5 1 1 4 2 WSW 1009,0 0,1 0 0,0
24.09.2020 01:00:00 12,8 12,8 11,7 15,2 17,6 17,5 3 1 4 2 E 1008,9 0,1 0 0,0
24.09.2020 00:00:00 13,7 13,7 12,7 15,6 17,7 17,5 3 2 4 2 E 1008,9 0,2 0 0,0
23.09.2020 23:00:00 14,3 14,3 13,9 15,9 17,8 17,5 3 2 7 4 N 1008,9 3,6 0 0,0
23.09.2020 22:00:00 14,1 14,1 13,6 15,9 17,9 17,5 4 2 5 3 NNW 1008,9 1,1 0 0,0
23.09.2020 21:00:00 13,9 13,7 11,7 16,5 18,0 17,5 3 2 4 2 NNE 1008,9 3,9 0 0,0
23.09.2020 20:00:00 15,6 15,4 12,8 17,5 18,0 17,5 4 2 6 4 SSE 1008,3 9 0 0,0
23.09.2020 19:00:00 17,5 15,6 16,7 18,8 17,9 17,5 4 2 8 4 SSE 1007,9 38 13 0,0
23.09.2020 18:00:00 18,0 15,7 18,2 19,1 17,8 17,5 4 2 9 5 S 1007,9 38 0 0,0
23.09.2020 17:00:00 18,0 15,2 18,6 19,2 17,7 17,5 6 3 12 6 SW 1008,0 46 0 0,0
23.09.2020 16:00:00 17,7 14,9 18,6 18,8 17,6 17,5 8 4 17 9 W 1008,3 33 0 0,0
23.09.2020 15:00:00 17,2 15,6 17,9 18,2 17,6 17,5 15 8 21 11 W 1008,6 27 0 0,0
23.09.2020 14:00:00 16,9 15,9 16,8 17,8 17,6 17,5 13 7 20 11 WSW 1008,9 16 0 0,8
23.09.2020 13:00:00 16,6 16,1 16,9 17,2 17,6 17,5 13 7 19 10 WSW 1009,1 10 0 2,5
23.09.2020 12:00:00 15,8 15,7 16,1 16,6 17,7 17,5 10 5 17 9 WSW 1009,2 7 0 4,7
23.09.2020 11:00:00 15,2 15,2 15,3 16,2 17,8 17,5 12 7 20 11 WSW 1009,3 7 0 6,2
23.09.2020 10:00:00 15,2 15,1 15,0 16,3 17,8 17,5 14 8 23 12 W 1009,4 3,9 0 5,8
23.09.2020 09:00:00 15,6 15,1 15,2 16,6 17,9 17,5 15 8 23 12 SW 1009,2 7 0 2,2
23.09.2020 08:00:00 15,9 15,1 15,2 16,5 18,0 17,5 11 6 18 10 WSW 1008,4 11 0 0,3
23.09.2020 07:00:00 14,3 14,0 14,1 16,3 18,1 17,5 7 4 9 5 SSW 1008,0 10 0 0,0
23.09.2020 06:00:00 13,3 13,0 13,1 16,2 18,2 17,5 3 1 6 4 SW 1008,3 11 0 0,0
23.09.2020 05:00:00 12,6 12,4 12,2 16,1 18,4 17,5 3 2 6 4 W 1008,5 9 0 0,0
23.09.2020 04:00:00 13,5 13,2 11,0 16,3 18,5 17,5 4 2 9 5 WSW 1008,2 12 0 0,0
23.09.2020 03:00:00 12,9 12,4 11,4 16,5 18,7 17,5 4 2 5 3 WSW 1008,3 16 0 0,0
23.09.2020 02:00:00 12,9 12,6 11,8 16,7 18,8 17,5 4 2 6 3 SW 1008,8 17 0 0,0
23.09.2020 01:00:00 13,4 13,4 11,9 17,0 19,0 17,5 4 2 6 3 WSW 1009,0 15 0 0,0
23.09.2020 00:00:00 12,5 11,7 10,4 17,2 19,2 17,5 4 2 6 3 E 1009,2 31 0 0,0
22.09.2020 23:00:00 13,3 12,9 10,5 17,9 19,4 17,5 4 2 6 3 SSW 1009,2 13 0 0,0
22.09.2020 22:00:00 14,3 13,4 11,6 18,7 19,5 17,5 3 2 11 6 SW 1009,3 23 0 0,0
22.09.2020 21:00:00 15,9 14,0 12,6 19,6 19,6 17,5 3 2 5 3 WSW 1009,3 29 0 0,0
22.09.2020 20:00:00 17,6 15,4 13,9 20,9 19,5 17,5 2 1 5 3 ESE 1009,2 33 0 0,0
22.09.2020 19:00:00 21,2 15,0 17,2 22,8 19,4 17,5 3 2 11 6 ENE 1008,8 52 26 0,0
22.09.2020 18:00:00 23,2 15,1 23,5 24,6 19,2 17,6 8 4 14 8 E 1008,6 44 60 0,0
22.09.2020 17:00:00 24,0 15,0 26,2 25,8 18,8 17,6 6 4 15 8 NE 1009,3 49 60 0,0
22.09.2020 16:00:00 24,0 14,8 27,1 26,4 18,4 17,6 5 3 14 8 ENE 1010,2 56 60 0,0
22.09.2020 15:00:00 23,8 14,3 27,4 26,4 18,0 17,6 6 3 15 8 ENE 1010,7 46 60 0,0
22.09.2020 14:00:00 23,2 13,9 26,4 25,4 17,7 17,6 4 2 14 8 NE 1011,4 34 60 0,0
22.09.2020 13:00:00 21,8 13,9 24,7 24,0 17,3 17,6 5 3 11 6 NNE 1012,3 25 60 0,0
22.09.2020 12:00:00 20,2 14,4 23,3 21,9 17,1 17,6 6 3 12 6 NNE 1012,9 21 60 0,0
22.09.2020 11:00:00 18,3 13,6 21,3 19,4 17,1 17,6 4 2 10 5 ENE 1013,7 16 60 0,0
22.09.2020 10:00:00 15,1 11,7 17,2 17,0 17,1 17,6 5 3 8 4 ENE 1014,3 19 60 0,0
22.09.2020 09:00:00 13,4 10,4 14,5 15,1 17,2 17,6 0 0 6 3 N 1014,6 17 48 0,0
22.09.2020 08:00:00 10,2 9,7 8,9 14,4 17,3 17,6 2 1 6 4 NNW 1015,0 9 0 0,0
22.09.2020 07:00:00 10,9 10,3 10,0 14,7 17,4 17,6 2 1 7 4 W 1014,9 15 0 0,0
22.09.2020 06:00:00 10,2 9,7 10,4 14,6 17,6 17,6 4 2 4 2 W 1014,9 18 0 0,0
22.09.2020 05:00:00 9,2 8,2 9,2 14,4 17,7 17,6 4 2 5 3 NE 1015,1 29 0 0,0
22.09.2020 04:00:00 9,2 9,0 8,0 14,6 17,9 17,6 2 1 6 3 WSW 1015,2 19 0 0,0
22.09.2020 03:00:00 9,1 8,9 7,6 14,8 18,1 17,6 2 1 4 2 S 1015,4 9 0 0,0
22.09.2020 02:00:00 9,3 8,6 7,4 15,3 18,3 17,6 0 0 5 3 N 1015,5 25 0 0,0
22.09.2020 01:00:00 10,1 9,3 8,2 15,8 18,5 17,6 4 2 5 3 WSW 1015,5 23 0 0,0
22.09.2020 00:00:00 10,8 10,0 9,1 16,4 18,7 17,6 0 0 4 2 N 1015,8 22 0 0,0
21.09.2020 23:00:00 12,4 11,6 9,4 17,1 18,8 17,6 2 1 6 3 SSE 1015,8 30 0 0,0
21.09.2020 22:00:00 13,2 11,4 10,9 17,8 19,0 17,6 6 4 8 4 WSW 1015,7 33 0 0,0
21.09.2020 21:00:00 14,3 12,7 12,0 18,7 19,0 17,6 0 0 5 3 N 1015,5 36 0 0,0
21.09.2020 20:00:00 15,8 12,6 11,9 20,0 19,0 17,7 2 1 4 2 SSW 1014,8 39 0 0,0
21.09.2020 19:00:00 20,3 12,4 16,2 21,9 18,9 17,7 4 2 9 5 E 1014,1 52 51 0,0
21.09.2020 18:00:00 22,1 12,1 22,3 23,7 18,6 17,7 6 4 14 8 ESE 1014,0 60 60 0,0
21.09.2020 17:00:00 22,8 11,5 25,8 24,9 18,3 17,7 5 3 11 6 E 1013,9 66 60 0,0
21.09.2020 16:00:00 22,7 12,3 26,1 25,5 17,9 17,7 6 4 12 7 E 1014,4 62 60 0,0
21.09.2020 15:00:00 22,1 11,7 26,2 25,3 17,5 17,7 5 3 13 7 SE 1014,9 21 60 0,0
21.09.2020 14:00:00 21,1 11,8 25,1 24,4 17,1 17,7 6 4 16 9 E 1015,4 35 60 0,0
21.09.2020 13:00:00 20,0 10,7 23,5 22,8 16,8 17,7 6 3 17 9 ENE 1016,0 39 60 0,0
21.09.2020 12:00:00 18,4 11,1 21,8 20,7 16,6 17,7 5 3 14 7 NE 1016,3 42 60 0,0
21.09.2020 11:00:00 16,2 10,9 19,2 18,2 16,5 17,7 9 5 14 8 NE 1016,9 44 60 0,0
21.09.2020 10:00:00 14,2 10,7 16,3 15,9 16,5 17,7 9 5 13 7 ENE 1017,0 30 60 0,0
21.09.2020 09:00:00 12,2 9,4 14,3 13,8 16,7 17,7 2 1 4 2 ESE 1017,2 26 60 0,0
21.09.2020 08:00:00 8,9 7,7 8,4 12,5 16,8 17,7 0 0 3 2 N 1017,7 20 25 0,0
21.09.2020 07:00:00 6,6 6,6 4,4 12,6 17,0 17,7 3 1 4 2 NW 1017,7 13 0 0,0
21.09.2020 06:00:00 7,0 7,0 5,0 12,9 17,2 17,7 3 2 4 2 SSE 1017,3 1,1 0 0,0
21.09.2020 05:00:00 6,8 6,0 5,0 13,2 17,4 17,7 3 1 5 3 N 1017,3 40 0 0,0
21.09.2020 04:00:00 7,3 6,6 6,2 13,6 17,6 17,7 3 2 5 3 NNW 1017,1 28 0 0,0
21.09.2020 03:00:00 8,0 7,8 5,8 14,0 17,8 17,8 0 0 7 4 N 1017,2 18 0 0,0
21.09.2020 02:00:00 8,1 7,9 6,2 14,4 18,0 17,8 3 2 5 3 S 1016,9 20 0 0,0
21.09.2020 01:00:00 9,3 9,0 6,6 14,9 18,2 17,8 0 0 4 2 N 1016,8 14 0 0,0
21.09.2020 00:00:00 9,5 7,7 6,9 15,5 18,4 17,8 2 1 5 3 NW 1016,8 41 0 0,0
20.09.2020 23:00:00 10,6 9,9 7,8 16,2 18,5 17,8 2 1 5 3 SW 1016,4 26 0 0,0
20.09.2020 22:00:00 11,5 9,8 8,6 17,0 18,7 17,8 1 1 4 2 ENE 1016,3 25 0 0,0
20.09.2020 21:00:00 12,3 10,2 9,4 18,0 18,7 17,8 0 0 6 3 N 1016,0 10 0 0,0
20.09.2020 20:00:00 14,9 10,5 10,8 19,3 18,7 17,8 0 0 4 2 N 1015,0 11 0 0,0
20.09.2020 19:00:00 19,5 11,4 16,1 21,2 18,6 17,8 3 2 12 6 NE 1013,9 19 56 0,0
20.09.2020 18:00:00 21,4 9,8 21,4 22,9 18,4 17,8 9 5 14 7 E 1013,5 53 60 0,0
20.09.2020 17:00:00 22,0 10,0 23,6 24,1 18,0 17,8 9 5 15 8 NE 1013,6 - 60 0,0
20.09.2020 16:00:00 21,3 10,2 24,4 24,6 17,6 17,9 9 5 16 9 E 1013,7 51 60 0,0
20.09.2020 15:00:00 20,6 9,7 24,0 24,5 17,2 17,9 9 5 19 11 E 1014,2 62 60 0,0
20.09.2020 14:00:00 20,3 9,9 23,5 23,5 16,9 17,9 12 6 19 10 NE 1014,6 47 60 0,0
20.09.2020 13:00:00 18,9 10,4 22,8 22,0 16,6 17,9 11 6 22 12 ENE 1015,1 57 60 0,0

tt = temperature
td = dewpoint
tt 5cm = temperature 5cm
tt -5cm = temperature -5cm
tt -20cm = temperature -20cm
tt -100cm = temperature -100cm
ff = wind speed
fx = gusts
dd = wind direction
ppp = reduced air pressure
vv = visibility
sd = sunshine duration
rr = precipitation

Next stations